Zurück zum Katalog

FENGYUN 1C DEB

AktivSSO
NORAD 29888·DEBRIS·🇨🇳 China

Gestartet May 10, 1999 von Taiyuan Satellite Launch Center

Loading…

Nächste Überflüge (nächste 24 Stunden)

TLE

AktuellSource: Space-Track

Epoche: Sep 14, 2026, 10:06 UTC

1 29888U 99025GJ  26257.42092139  .00000580  00000-0  20405-3 0  9999
2 29888  99.1746 106.0987 0272072 321.1204  37.0675 14.20570475 14151

Verfolge FENGYUN 1C DEB in Echtzeit mit AllMySat

Download on the App Store